Starlink 31812

operational
NORAD ID: 59800 Int'l Des: 2024-093 Owner: SPXS Country: US Constellation: starlink
LEOCIRCULAR

Über Starlink 31812

Beschreibung wird geladen...

Live-Position

3D-Globus wird geladen...

Nächste Überflüge

Höhenverlauf

Altitude vs Time

uPlot chart will show altitude changes over time

Zweizeiliger Elementsatz

1 59800U 24093U 25351.23255152 .00002689 00000-0 10717-3 0 9995
2 59800 43.0016 314.6610 0000968 297.8996 62.1758 15.27591794 90156
Epoch: 17. Dez. 2025 • Age: 30 hours

Aktueller Status

Höhe 484.7 km
Geschwindigkeit 7.62 km/s
Subsatellitenpunkt -12.51°S, 36.9°E
Startdatum 18. Mai 2024
Alter 1.5 years
Typ internet

Technische Details

Klassifizierung Payload
Masse 730.00 kg
Trockenmasse 700.00 kg
Gesamtmasse 730.00 kg
Länge 0.30 m
Durchmesser 4.10 m
Spannweite 29.00 m
Form Box + pan
Hersteller SPXS
Bus-Typ Starlink V2M
Phasenstatus In Orbit
Besitzer/Staat SPXS/US

Große Konstellationen

Loading constellations...